DISKSAT B

Last updated on Fri Dec 19 2025 00:02:10 GMT+0000 (Coordinated Universal Time)

1 67220U 25305B 25352.25791133 .00001486 00000+0 11832-3 0 9996 2 67220 45.0065 321.2700 0003917 288.0087 72.0361 15.05411903 16
UTC large
Height (km)
Speed (km/s)
/
Latitude / Longitude
Inclination (degrees)
Orbital Period (minutes)
Azimuth
Elevation
Range (km)
Doppler Factor

Next 0 passes for location: London (51.5072 / 0.1276)

Sorry there are no passes over London.